Location: ???????
(56.2167°N, 38.0500°E)
Time: 09:19:18
(UTC+00:00)

Cosmos 2208 Rocket - Pass Details

Date: 19 May 2025
Orbit: 751 x 801 km, 74.0° (Epoch: 12 June)

Event Time Altitude Azimuth Distance (km) Brightness Sun altitude
Exits shadow 19:14:45 - 194° (SSW) 3,178 6.8 -9.1°
Reaches altitude 10° 19:16:53 10° 191° (S) 2,356 6.1 -9.2°
Maximum altitude 19:22:09 62° 112° (ESE) 889 4.1 -9.6°
Drops below altitude 10° 19:27:24 10° 33° (NNE) 2,341 6.9 -9.9°
Sets 19:29:48 0° 30° (NNE) 3,265 7.7 -10.1°
